Torna al catalogo

H-2A R/B

AttivoSSO
NORAD 27601·ROCKET BODY·🇯🇵 Japan

Lanciato Dec 14, 2002 da Tanegashima Space Center

Loading…

Prossimi Passaggi (prossime 24 ore)

TLE

AggiornatoSource: Space-Track

Epoca: Sep 14, 2026, 02:45 UTC

1 27601U 02056E   26257.11474683  .00000194  00000-0  82889-4 0  9998
2 27601  98.3409 210.5849 0069440 321.2314  48.6226 14.33861769241114

Traccia H-2A R/B in tempo reale con AllMySat

Download on the App Store